W1RCP Weather Reports


Display with metric or nautical units.
time (UTC)temp
F
wind
direction
speed
MPH
gust
MPH
rain 1hr
in
rain 24hr
in
rain mn
in
humidity
%
barometer
mb
20260505152512 76 199 2.0 7.0 0.00 0.00 0.00 56 1027.9
20260505152008 75 209 3.0 3.0 0.00 0.00 0.00 57 1028.2
20260505151503 75 203 2.0 6.0 0.00 0.00 0.00 57 1028.2
20260505151000 75 198 3.0 7.0 0.00 0.00 0.00 56 1028.4
20260505150457 75 187 2.0 7.0 0.00 0.00 0.00 57 1028.4
20260505140427 72 237 4.0 6.0 0.00 0.00 0.00 65 1027.8
20260505124840 65 197 2.0 2.0 0.00 0.00 0.00 72 1027.1
20260505124337 66 207 2.0 4.0 0.00 0.00 0.00 72 1027.1
20260505123833 66 174 0.0 1.0 0.00 0.00 0.00 71 1027.1
20260505123330 66 174 0.0 1.0 0.00 0.00 0.00 73 1027.1
20260505122826 65 176 0.0 0.0 0.00 0.00 0.00 74 1027.1
20260505122324 64 185 0.0 1.0 0.00 0.00 0.00 74 1026.9
20260505121820 63 185 0.0 0.0 0.00 0.00 0.00 76 1027.0
20260505121317 63 185 0.0 0.0 0.00 0.00 0.00 78 1026.9
20260505120813 62 185 1.0 1.0 0.00 0.00 0.00 79 1026.8
20260505120309 60 185 0.0 0.0 0.00 0.00 0.00 82 1027.0
20260505115808 59 185 0.0 0.0 0.00 0.00 0.00 87 1026.9
20260505115306 58 185 0.0 1.0 0.00 0.00 0.00 89 1026.6
20260505114803 57 185 0.0 0.0 0.00 0.00 0.00 91 1026.6
20260505114300 56 184 0.0 0.0 0.00 0.00 0.00 92 1026.7
20260505113756 55 184 0.0 0.0 0.00 0.00 0.00 92 1026.7
20260505113252 55 184 0.0 0.0 0.00 0.00 0.00 93 1026.5
20260505112748 54 184 0.0 0.0 0.00 0.00 0.00 93 1026.6
20260505112247 54 184 0.0 0.0 0.00 0.00 0.00 93 1026.7
20260505111747 54 184 0.0 0.0 0.00 0.00 0.00 94 1026.4
20260505111243 54 184 0.0 0.0 0.00 0.00 0.00 94 1026.6
20260505110739 53 184 0.0 0.0 0.00 0.00 0.00 94 1026.5
20260505110237 53 184 0.0 0.0 0.00 0.00 0.00 94 1026.4
20260505102212 53 185 0.0 0.0 0.00 0.00 0.00 93 1026.4
20260505101711 54 185 0.0 0.0 0.00 0.00 0.00 92 1026.1
20260505101206 54 185 0.0 0.0 0.00 0.00 0.00 92 1026.3
20260505100703 54 184 0.0 0.0 0.00 0.00 0.00 92 1026.0
20260505100200 54 185 0.0 0.0 0.00 0.00 0.00 92 1026.0
20260505095655 54 184 0.0 0.0 0.00 0.00 0.00 92 1026.1
20260505095153 54 184 0.0 0.0 0.00 0.00 0.00 92 1026.2
20260505094649 54 185 0.0 0.0 0.00 0.00 0.00 92 1025.9
20260505094145 54 185 0.0 0.0 0.00 0.00 0.00 92 1026.2
20260505093642 54 184 0.0 0.0 0.00 0.00 0.00 92 1026.0
20260505093139 54 184 0.0 0.0 0.00 0.00 0.00 92 1026.0
20260505092636 54 184 0.0 0.0 0.00 0.00 0.00 91 1025.9